This is the latest recevied weather packets stored in our database for station/object 4S6DRJ-13. If no packets are shown the sender has not sent any weather packets the latest 10 day(s).
| Time | Temp. | Humidity | Pressure | Rain* | Wind** | Luminosity | Snow |
|---|---|---|---|---|---|---|---|
| 1788360318 | 27.78° C | 85% | 1010.1 hPa | 0 mm | 0.45 m/s, 221° | 0 W/m² | - |
| 1788360257 | 27.78° C | 85% | 1010.2 hPa | 0 mm | 0.89 m/s, 213° | 0 W/m² | - |
| 1788360196 | 27.78° C | 85% | 1010.2 hPa | 0 mm | 0.89 m/s, 242° | 0 W/m² | - |
| 1788360135 | 27.78° C | 85% | 1010.2 hPa | 0 mm | 0.89 m/s, 222° | 0 W/m² | - |
| 1788360074 | 27.78° C | 86% | 1010.1 hPa | 0 mm | 0 m/s | 0 W/m² | - |
| 1788360013 | 27.78° C | 86% | 1010.1 hPa | 0 mm | 1.34 m/s, 207° | 0 W/m² | - |
| 1788359952 | 27.78° C | 86% | 1010.2 hPa | 0 mm | 0.45 m/s, 207° | 0 W/m² | - |
| 1788359891 | 27.78° C | 86% | 1010 hPa | 0 mm | 0.89 m/s, 232° | 0 W/m² | - |
| 1788359830 | 27.78° C | 86% | 1010 hPa | 0 mm | 1.34 m/s, 249° | 0 W/m² | - |
| 1788359769 | 27.78° C | 86% | 1010.1 hPa | 0 mm | 1.34 m/s, 247° | 0 W/m² | - |
| 1788359708 | 27.78° C | 86% | 1010 hPa | 0 mm | 0.45 m/s, 267° | 0 W/m² | - |
| 1788359647 | 27.78° C | 86% | 1010 hPa | 0 mm | 1.79 m/s, 235° | 0 W/m² | - |
| 1788359586 | 27.78° C | 86% | 1010.1 hPa | 0 mm | 0.89 m/s, 86° | 0 W/m² | - |
| 1788359525 | 27.78° C | 86% | 1009.9 hPa | 0 mm | 0.89 m/s, 299° | 0 W/m² | - |
| 1788359464 | 27.78° C | 86% | 1010.1 hPa | 0 mm | 0.89 m/s, 214° | 0 W/m² | - |
| 1788359403 | 27.78° C | 86% | 1009.9 hPa | 0 mm | 0 m/s | 0 W/m² | - |
| 1788359342 | 27.78° C | 86% | 1010 hPa | 0 mm | 0.89 m/s, 237° | 0 W/m² | - |
| 1788359281 | 27.78° C | 86% | 1010 hPa | 0 mm | 0 m/s | 0 W/m² | - |
| 1788359221 | 27.78° C | 86% | 1009.8 hPa | 0 mm | 1.79 m/s, 226° | 0 W/m² | - |
| 1788359159 | 27.78° C | 86% | 1009.9 hPa | 0 mm | 0.89 m/s, 242° | 0 W/m² | - |
| 1788359098 | 27.78° C | 86% | 1009.9 hPa | 0 mm | 1.34 m/s, 229° | 0 W/m² | - |
| 1788359037 | 27.78° C | 86% | 1009.9 hPa | 0 mm | 0 m/s | 0 W/m² | - |
| 1788358976 | 27.78° C | 86% | 1009.9 hPa | 0 mm | 0.89 m/s, 255° | 0 W/m² | - |
| 1788358915 | 27.78° C | 86% | 1010 hPa | 0 mm | 0 m/s | 0 W/m² | - |
| 1788358854 | 27.78° C | 86% | 1009.9 hPa | 0 mm | 0 m/s | 0 W/m² | - |
* Rain latest hour (hover to see other rain measurements)
** Current wind speed in m/s (hover to see current wind gust speed)